Location: Mascot Post Office (historical)
(40.2645°N, 99.5462°W)
Time: 02:44:35
(UTC+00:00)

SL-08 RB Rocket - Pass Details

Date: 14 July 2020
Orbit: 648 x 683 km, 97.8° (Epoch: 14 August)

Event Time Altitude Azimuth Distance (km) Brightness Sun altitude
Rises 02:36:03 0° 175° (S) 2,949 6.7 -5.4°
Reaches altitude 10° 02:38:16 10° 178° (S) 2,046 5.9 -5.8°
Maximum altitude 02:42:41 62° 260° (W) 738 4.2 -6.5°
Drops below altitude 10° 02:47:10 10° 341° (NNW) 2,076 7.2 -7.2°
Sets 02:49:26 0° 344° (NNW) 2,997 8.0 -7.5°
